When you browse on this site, cookies collect data to enhance your experience and personalize the content and advertising you see.
Visit our Privacy Policy to learn more. By continuing to use the site, you agree to this use of cookies and data.

Hourly Weather Grozny

Today, 5 July, Sunday

Time Temperature Precipitation Wind Pressure Humidity
00:00 +24°C° 0 mm 1 mps 737 mmHg 44%
01:00 +23°C° 0 mm 1 mps 737 mmHg 46%
02:00 +23°C° 0 mm 1 mps 737 mmHg 48%
03:00 +22°C° 0 mm 1 mps 737 mmHg 50%
04:00 +23°C° 0 mm 1 mps 737 mmHg 50%
05:00 +24°C° 0 mm 1 mps 737 mmHg 49%
06:00 +25°C° 0 mm 1 mps 737 mmHg 48%
07:00 +27°C° 0 mm 1 mps 737 mmHg 44%
08:00 +29°C° 0 mm 1 mps 737 mmHg 39%
09:00 +31°C° 0 mm 1 mps 737 mmHg 34%
10:00 +33°C° 0 mm 1 mps 737 mmHg 31%
11:00 +36°C° 0 mm 2 mps 736 mmHg 29%
12:00 +37°C° 0 mm 2 mps 736 mmHg 26%
13:00 +38°C° 0 mm 2 mps 736 mmHg 23%
14:00 +39°C° 0 mm 3 mps 736 mmHg 21%
15:00 +41°C° 0 mm 4 mps 736 mmHg 19%
16:00 +40°C° 0 mm 4 mps 736 mmHg 19%
17:00 +39°C° 0 mm 5 mps 736 mmHg 20%
18:00 +37°C° 0 mm 5 mps 736 mmHg 20%
19:00 +34°C° 0 mm 4 mps 736 mmHg 24%
20:00 +30°C° 0 mm 3 mps 736 mmHg 29%
21:00 +28°C° 0 mm 1 mps 736 mmHg 33%
22:00 +27°C° 0 mm 1 mps 735 mmHg 36%
23:00 +26°C° 0 mm 1 mps 735 mmHg 40%

Tomorrow, 6 July, Monday

Time Temperature Precipitation Wind Pressure Humidity
00:00 +25°C° 0 mm 1 mps 735 mmHg 43%
01:00 +24°C° 0 mm 1 mps 735 mmHg 44%
02:00 +24°C° 0 mm 1 mps 735 mmHg 46%
03:00 +23°C° 0 mm 1 mps 735 mmHg 47%
04:00 +24°C° 0 mm 1 mps 735 mmHg 46%
05:00 +25°C° 0 mm 1 mps 735 mmHg 45%
06:00 +26°C° 0 mm 1 mps 735 mmHg 44%
07:00 +28°C° 0 mm 1 mps 735 mmHg 39%
08:00 +31°C° 0 mm 1 mps 735 mmHg 35%
09:00 +33°C° 0 mm 1 mps 736 mmHg 30%
10:00 +36°C° 0 mm 2 mps 735 mmHg 27%
11:00 +37°C° 0 mm 2 mps 735 mmHg 25%
12:00 +39°C° 0 mm 2 mps 735 mmHg 22%
13:00 +40°C° 0 mm 2 mps 735 mmHg 20%
14:00 +42°C° 0 mm 3 mps 734 mmHg 17%
15:00 +43°C° 0 mm 3 mps 734 mmHg 15%
16:00 +42°C° 0 mm 4 mps 734 mmHg 16%
17:00 +41°C° 0 mm 5 mps 734 mmHg 17%
18:00 +40°C° 0 mm 7 mps 734 mmHg 19%
19:00 +38°C° 0 mm 6 mps 734 mmHg 23%
20:00 +34°C° 0 mm 5 mps 734 mmHg 27%
21:00 +32°C° 0 mm 4 mps 735 mmHg 31%
22:00 +30°C° 0 mm 3 mps 735 mmHg 33%
23:00 +28°C° 0 mm 3 mps 734 mmHg 34%

Day after tomorrow, 7 July, Tuesday

Time Temperature Precipitation Wind Pressure Humidity
00:00 +27°C° 0 mm 2 mps 734 mmHg 36%
01:00 +26°C° 0 mm 2 mps 734 mmHg 37%
02:00 +26°C° 0 mm 2 mps 734 mmHg 38%
03:00 +25°C° 0 mm 1 mps 734 mmHg 39%
04:00 +25°C° 0 mm 1 mps 734 mmHg 37%
05:00 +26°C° 0 mm 1 mps 734 mmHg 36%
06:00 +27°C° 0 mm 1 mps 734 mmHg 35%
07:00 +30°C° 0 mm 1 mps 734 mmHg 30%
08:00 +32°C° 0 mm 1 mps 734 mmHg 25%
09:00 +35°C° 0 mm 1 mps 734 mmHg 20%
10:00 +37°C° 0 mm 1 mps 734 mmHg 18%
11:00 +40°C° 0 mm 2 mps 734 mmHg 15%
12:00 +43°C° 0 mm 3 mps 734 mmHg 13%
13:00 +43°C° 0 mm 3 mps 733 mmHg 13%
14:00 +44°C° 0 mm 3 mps 733 mmHg 12%
15:00 +45°C° 0 mm 4 mps 733 mmHg 12%
16:00 +44°C° 0 mm 4 mps 733 mmHg 13%
17:00 +43°C° 0 mm 4 mps 733 mmHg 14%
18:00 +42°C° 0 mm 4 mps 733 mmHg 16%
19:00 +38°C° 0 mm 4 mps 733 mmHg 20%
20:00 +36°C° 0 mm 4 mps 733 mmHg 24%
21:00 +33°C° 0 mm 3 mps 734 mmHg 28%
22:00 +31°C° 0 mm 3 mps 734 mmHg 29%
23:00 +30°C° 0 mm 2 mps 734 mmHg 31%

8 July, Wednesday

Time Temperature Precipitation Wind Pressure Humidity
00:00 +28°C° 0 mm 2 mps 734 mmHg 33%
01:00 +28°C° 0 mm 2 mps 734 mmHg 34%
02:00 +27°C° 0 mm 1 mps 733 mmHg 35%
03:00 +26°C° 0 mm 1 mps 733 mmHg 36%
04:00 +27°C° 0 mm 1 mps 733 mmHg 36%
05:00 +27°C° 0 mm 1 mps 733 mmHg 36%
06:00 +28°C° 0 mm 1 mps 733 mmHg 35%
07:00 +30°C° 0 mm 1 mps 733 mmHg 31%
08:00 +33°C° 0 mm 1 mps 733 mmHg 27%
09:00 +37°C° 0 mm 2 mps 733 mmHg 22%
10:00 +38°C° 0 mm 2 mps 733 mmHg 20%
11:00 +40°C° 0 mm 2 mps 733 mmHg 19%
12:00 +43°C° 0 mm 3 mps 733 mmHg 17%
13:00 +44°C° 0 mm 3 mps 733 mmHg 16%
14:00 +44°C° 0 mm 4 mps 733 mmHg 14%
15:00 +45°C° 0 mm 4 mps 732 mmHg 13%
16:00 +43°C° 0 mm 5 mps 733 mmHg 15%
17:00 +42°C° 0 mm 5 mps 733 mmHg 17%
18:00 +40°C° 0 mm 6 mps 733 mmHg 20%
19:00 +37°C° 0 mm 5 mps 733 mmHg 26%
20:00 +34°C° 0 mm 4 mps 733 mmHg 32%
21:00 +31°C° 0 mm 3 mps 734 mmHg 39%
22:00 +30°C° 0 mm 3 mps 734 mmHg 42%
23:00 +30°C° 0 mm 3 mps 734 mmHg 45%

9 July, Thursday

Time Temperature Precipitation Wind Pressure Humidity
00:00 +29°C° 0 mm 3 mps 733 mmHg 48%
01:00 +29°C° 0 mm 3 mps 733 mmHg 49%
02:00 +28°C° 0 mm 3 mps 733 mmHg 50%
03:00 +28°C° 0 mm 2 mps 733 mmHg 50%
04:00 +28°C° 0 mm 2 mps 733 mmHg 51%
05:00 +28°C° 0 mm 2 mps 733 mmHg 52%
06:00 +28°C° 0 mm 2 mps 733 mmHg 54%
07:00 +29°C° 0.1 mm 3 mps 733 mmHg 48%
08:00 +31°C° 0.1 mm 3 mps 733 mmHg 42%
09:00 +34°C° 0.1 mm 3 mps 733 mmHg 36%
10:00 +35°C° 0 mm 3 mps 733 mmHg 33%
11:00 +37°C° 0 mm 3 mps 733 mmHg 30%
12:00 +38°C° 0 mm 3 mps 733 mmHg 27%
13:00 +38°C° 0.1 mm 3 mps 733 mmHg 28%
14:00 +38°C° 0.1 mm 3 mps 733 mmHg 28%
15:00 +38°C° 0.1 mm 2 mps 733 mmHg 29%
16:00 +37°C° 0.4 mm 2 mps 733 mmHg 32%
17:00 +36°C° 0.4 mm 2 mps 733 mmHg 36%
18:00 +35°C° 0.4 mm 2 mps 733 mmHg 39%
19:00 +31°C° 1.1 mm 2 mps 733 mmHg 51%
20:00 +29°C° 1.1 mm 2 mps 733 mmHg 63%
21:00 +26°C° 1.1 mm 3 mps 733 mmHg 74%
22:00 +26°C° 0.1 mm 2 mps 733 mmHg 73%
23:00 +26°C° 0.1 mm 2 mps 733 mmHg 72%

10 July, Friday

Time Temperature Precipitation Wind Pressure Humidity
00:00 +25°C° 0.1 mm 2 mps 733 mmHg 72%
01:00 +25°C° 0.3 mm 2 mps 733 mmHg 71%
02:00 +25°C° 0.3 mm 2 mps 733 mmHg 71%
03:00 +25°C° 0.3 mm 2 mps 734 mmHg 71%
04:00 +25°C° 0.1 mm 2 mps 734 mmHg 69%
05:00 +26°C° 0.1 mm 2 mps 734 mmHg 68%
06:00 +26°C° 0.1 mm 2 mps 734 mmHg 66%
07:00 +28°C° 0 mm 3 mps 734 mmHg 59%
08:00 +30°C° 0 mm 3 mps 734 mmHg 52%
09:00 +33°C° 0 mm 4 mps 735 mmHg 45%
10:00 +34°C° 0 mm 3 mps 735 mmHg 41%
11:00 +36°C° 0 mm 3 mps 735 mmHg 37%
12:00 +37°C° 0 mm 3 mps 735 mmHg 34%
13:00 +37°C° 0.1 mm 2 mps 734 mmHg 33%
14:00 +38°C° 0.1 mm 2 mps 734 mmHg 32%
15:00 +38°C° 0.1 mm 2 mps 734 mmHg 31%
16:00 +37°C° 0.3 mm 2 mps 734 mmHg 34%
17:00 +35°C° 0.3 mm 1 mps 734 mmHg 37%
18:00 +34°C° 0.3 mm 1 mps 734 mmHg 40%
19:00 +32°C° 0.7 mm 2 mps 735 mmHg 47%
20:00 +30°C° 0.7 mm 3 mps 735 mmHg 55%
21:00 +28°C° 0.7 mm 4 mps 736 mmHg 62%
22:00 +27°C° 2.2 mm 4 mps 736 mmHg 70%
23:00 +25°C° 2.2 mm 4 mps 736 mmHg 77%
Show more